Temp
24 23 23 23 23 23 22 22 22 22 22 22 23 23 23 23 23 23 23 24 24 24 24 24 24 24 24 24 24 24 24 24 24 24 24 23 22 22 23 22 22 22 23 23 23 23 23 23 24 24 24 24 23 23 23 23 23 23 23 22 22 22 22 22 23 24 24 24 24 24 24 24 25 25 25 25 25 25 25 25 25 25 25 25 25
24 23 23 23 23 23 23 23 22 22 23 23 23 23 23 23 23 23 23 23 24 24 24 24 24 24 24 24 24 24 24 24 24 24 24 23 23 22 22 22 22 22 22 22 23 23 23 23 23 23 23 24 23 23 23 23 23 23 22 22 22 22 22 22 23 23 24 24 24 24 24 24 24 25 25 25 25 24 24 25 25 25 25 25 25
24 24 23 23 23 23 23 23 23 23 23 23 23 23 23 23 23 23 23 23 23 24 24 24 24 24 24 24 24 24 24 25 24 24 24 24 23 23 23 23 23 23 23 23 23 23 23 23 23 23 23 23 23 23 23 23 23 22 22 22 22 22 22 22 22 23 23 24 24 24 24 24 24 24 24 24 24 24 24 24 24 24 25 25 25
25 24 24 23 23 23 23 23 23 23 23 23 23 23 23 23 23 23 23 23 23 24 24 24 24 24 24 24 24 24 24 24 24 24 24 24 24 23 23 23 23 23 23 23 23 23 23 23 23 23 23 23 23 23 23 22 22 22 22 22 22 22 22 22 22 22 22 23 23 23 23 23 23 23 23 23 23 23 23 24 24 24 24 24 24
25 24 24 24 24 23 23 23 23 23 23 24 23 24 24 23 23 23 23 23 23 23 24 24 23 24 24 24 24 24 24 24 24 24 24 24 24 24 24 24 24 24 24 24 24 23 23 23 23 23 23 23 23 23 22 22 22 22 23 22 22 22 22 22 22 22 21 22 22 23 23 23 23 23 23 23 23 23 23 23 24 24 24 24 24
25 25 25 25 24 23 23 23 24 23 24 24 24 24 24 24 23 23 23 23 23 23 23 23 23 24 24 24 24 24 24 24 24 24 24 24 24 24 24 24 24 24 24 24 24 24 24 23 23 23 23 23 23 23 23 23 22 22 23 23 22 22 22 22 22 22 21 21 22 22 22 22 22 22 23 23 22 22 22 23 23 23 24 24 24
25 25 25 25 24 23 23 24 24 24 24 24 24 24 24 24 24 23 23 23 23 23 23 23 23 24 24 24 24 24 24 24 24 24 24 24 24 24 24 24 24 24 24 24 23 23 23 23 23 23 23 23 23 23 23 23 23 22 22 22 22 22 22 22 22 21 21 22 22 22 22 22 22 22 22 22 22 22 22 22 22 23 23 23 24
25 25 25 25 24 24 23 24 24 24 24 23 24 24 24 24 24 23 23 23 23 24 24 23 23 23 24 24 24 24 24 24 24 24 24 24 24 24 24 24 23 23 23 23 23 23 23 23 23 23 23 23 24 23 23 23 23 23 23 22 22 22 22 22 22 22 22 22 22 23 22 22 22 22 22 22 21 22 22 22 22 22 23 23 23
25 25 25 25 24 24 24 24 24 23 23 23 23 23 23 23 23 23 23 23 24 24 24 24 23 23 23 23 23 23 23 23 24 24 24 24 24 23 23 23 23 23 23 23 23 23 23 23 23 23 23 23 24 24 24 23 23 23 23 23 23 23 23 23 23 23 23 23 23 23 23 22 22 22 22 22 22 23 23 22 22 22 22 22 22
25 25 25 24 24 24 24 24 23 23 23 23 23 23 23 23 23 23 23 23 23 23 23 23 23 23 23 23 23 23 23 23 24 24 24 24 23 23 23 23 23 23 23 23 23 23 23 23 24 24 24 24 24 24 24 24 23 23 23 23 23 23 23 23 23 23 23 23 23 23 23 23 22 22 22 22 23 23 22 21 21 21 21 21 21
25 25 25 24 24 24 24 23 23 23 23 23 23 23 23 23 23 23 23 23 23 23 23 23 23 24 23 23 23 23 23 23 24 24 24 24 23 23 23 23 23 23 23 23 23 23 24 23 23 23 24 24 24 24 24 24 24 24 24 23 23 23 23 23 23 23 23 23 23 23 23 23 22 22 22 22 22 22 22 21 21 21 21 21 22
25 25 25 24 24 24 24 23 23 23 23 23 23 23 23 23 23 23 23 23 23 23 23 23 23 23 23 24 23 23 23 24 24 24 24 24 24 23 23 23 23 23 23 23 23 23 23 23 23 23 23 23 23 24 24 24 24 24 24 24 23 23 23 23 22 23 23 23 23 23 23 22 22 22 22 22 22 21 21 21 21 21 21 21 21
25 25 25 24 24 24 24 23 23 23 23 23 23 23 23 23 23 23 23 23 23 23 23 23 23 23 23 23 24 24 24 24 24 24 24 24 24 23 23 23 23 23 23 23 23 23 23 23 23 23 23 23 23 23 23 23 24 24 24 23 23 23 23 23 23 23 23 22 22 22 23 22 22 22 22 22 22 21 21 21 21 21 21 21 21
25 25 25 24 24 24 24 23 23 23 23 23 23 23 23 23 23 23 23 23 23 23 23 23 23 23 23 23 23 23 24 24 24 24 24 24 24 23 23 23 23 23 23 23 23 23 23 23 23 23 23 23 23 23 23 23 23 23 23 23 23 23 23 23 23 23 23 23 22 22 23 23 22 21 21 21 22 21 21 21 20 20 20 20 21
25 25 25 24 24 24 24 24 23 23 23 23 23 23 23 23 23 23 23 23 23 23 23 23 23 23 23 23 23 23 24 24 24 24 24 24 23 23 23 23 23 23 23 23 23 23 23 23 23 23 23 23 23 23 23 23 23 23 23 23 23 23 23 23 23 23 24 24 23 23 23 23 23 22 21 21 21 21 21 21 20 20 20 20 20
25 25 25 25 24 24 24 24 24 23 23 23 23 23 23 23 23 23 23 23 23 23 23 23 23 23 23 23 23 23 24 24 24 23 23 23 23 23 23 22 22 23 23 23 23 23 23 23 23 23 23 23 23 23 24 23 23 23 24 24 24 24 24 24 23 24 24 24 24 23 23 23 22 22 22 21 20 20 20 20 20 19 19 19 19
25 25 25 25 25 24 24 24 24 24 23 23 23 23 23 23 23 23 23 23 24 23 23 23 23 23 23 23 23 23 24 24 24 24 23 23 23 23 23 22 22 22 23 23 23 23 23 23 23 23 23 23 23 24 24 23 23 23 23 23 24 24 25 24 24 24 24 24 23 23 22 23 23 23 23 22 21 20 19 19 19 19 19 19 19
26 25 25 25 25 25 24 24 24 24 24 23 24 23 23 23 23 23 23 23 24 24 24 24 24 23 24 24 23 23 24 24 24 23 23 23 23 23 23 22 22 22 23 23 23 23 23 23 23 23 23 23 24 24 24 23 22 22 23 23 24 24 24 24 24 24 24 23 23 23 23 23 24 24 24 23 22 21 19 19 19 19 19 19 19
26 26 25 25 25 25 25 24 24 24 24 24 24 24 24 24 24 23 23 24 24 24 24 24 24 24 24 24 24 24 24 24 24 23 23 23 23 23 22 22 22 22 23 23 23 23 23 23 24 24 24 24 24 24 24 23 22 22 23 23 23 24 24 24 23 23 23 23 23 23 23 23 23 23 24 24 23 22 21 21 20 19 19 20 20
26 26 26 26 25 25 25 25 24 24 24 24 24 24 24 24 24 24 24 24 24 24 24 24 24 24 24 24 24 24 24 24 24 24 23 23 23 23 22 22 22 23 23 23 23 23 23 23 23 24 24 25 25 25 24 23 22 22 23 23 23 23 23 23 23 23 23 22 23 23 23 23 23 23 23 23 23 22 22 21 20 19 20 20 20
26 26 26 26 25 25 25 25 25 25 25 24 24 24 24 24 24 24 24 24 24 24 24 24 24 24 24 24 24 24 24 24 24 24 24 23 23 23 23 22 22 23 23 23 23 23 24 23 24 24 25 25 25 24 24 23 23 22 22 22 22 22 22 22 22 22 22 22 22 22 22 23 23 22 22 22 22 21 21 21 20 20 20 20 20
26 26 26 26 26 26 25 25 25 25 25 25 24 24 24 24 24 24 24 24 24 24 24 24 24 24 24 24 24 24 24 24 24 24 24 23 23 23 23 23 23 23 23 23 23 24 24 24 24 24 25 24 24 24 23 23 23 22 22 21 21 20 21 22 23 23 23 23 23 22 22 22 21 21 21 21 21 21 20 20 20 19 19 19 19
26 26 26 26 26 26 25 25 25 25 25 25 24 24 24 24 24 24 24 24 24 24 24 24 24 24 25 24 24 24 24 24 24 24 24 24 23 23 23 23 23 23 23 23 24 24 24 24 24 24 24 24 23 23 23 22 22 22 21 21 20 19 20 22 23 23 22 22 21 21 20 20 20 20 20 20 20 20 20 21 20 19 18 18 18
26 26 26 26 26 26 26 25 25 25 25 25 24 25 24 24 24 24 24 24 24 24 24 24 24 25 25 25 25 24 24 23 24 24 24 24 24 23 23 23 23 23 23 23 24 24 24 24 24 24 23 23 23 22 22 22 21 21 20 20 20 19 19 20 20 19 19 19 19 19 19 19 19 20 20 20 20 21 21 21 20 19 18 17 17
26 26 26 26 26 26 26 26 25 25 25 25 25 25 25 24 24 24 24 24 25 25 25 25 25 25 25 25 26 25 24 24 24 24 24 24 24 24 24 24 24 24 23 23 23 24 24 23 23 23 23 22 22 22 21 21 21 20 20 20 19 18 18 18 18 18 18 19 19 19 19 19 20 20 21 21 21 21 20 19 19 18 18 17 17
26 26 26 26 26 26 26 26 26 25 25 25 25 25 25 25 25 24 25 25 25 25 25 25 25 25 25 26 26 25 24 24 24 24 24 24 24 24 24 24 24 24 23 23 22 22 23 22 22 22 22 22 21 21 20 20 20 20 20 20 19 18 17 18 18 18 18 18 18 18 18 19 20 21 21 21 21 20 18 17 17 17 17 17 16
26 26 26 26 26 26 26 27 26 26 26 26 26 25 25 25 25 25 25 25 26 25 25 26 26 26 26 26 25 25 25 24 24 24 24 24 24 24 24 24 24 23 23 23 22 21 21 21 21 21 21 21 20 20 20 20 20 19 19 20 19 19 19 19 18 18 18 18 17 18 18 19 19 19 19 19 19 18 17 16 16 16 16 16 16
26 26 26 26 26 26 26 26 26 26 26 26 26 26 26 26 26 25 25 25 26 26 26 26 26 26 26 26 25 25 25 25 25 25 24 24 24 24 24 24 24 23 23 23 22 20 20 20 20 20 20 20 20 20 20 20 20 20 20 20 20 19 19 19 18 17 17 17 17 17 17 18 18 17 17 18 17 17 16 16 16 16 16 16 16
25 25 25 25 25 25 25 26 26 26 26 26 26 26 26 26 26 26 26 25 25 26 26 26 26 26 26 26 26 26 26 25 25 25 25 25 25 24 24 24 24 24 23 22 21 19 19 19 20 20 20 20 20 20 19 19 20 20 20 19 19 19 18 18 17 17 17 17 16 16 17 17 17 17 17 17 17 16 16 16 16 16 16 16 16
25 25 25 25 25 24 25 25 25 26 25 25 24 24 24 24 25 25 25 25 25 25 25 25 26 26 26 26 25 26 26 26 25 25 25 25 24 24 24 24 24 23 23 21 20 19 18 19 19 19 20 20 19 19 19 19 19 19 19 18 18 18 18 18 17 17 17 16 16 17 17 17 17 17 17 17 17 16 16 16 16 16 16 16 16
25 25 25 25 24 24 24 25 25 24 24 24 23 23 22 22 23 24 24 24 24 24 25 25 25 25 25 25 25 25 25 25 25 25 25 24 24 24 23 23 22 22 22 21 19 19 19 19 18 19 19 19 19 19 19 19 19 19 19 19 19 19 18 18 18 17 17 17 17 17 17 17 17 17 17 16 16 16 16 16 16 16 16 16 16
25 25 25 24 24 24 24 24 24 23 23 23 22 22 22 21 21 21 22 23 23 24 24 24 24 24 24 24 24 24 24 24 24 24 23 24 23 23 22 22 21 21 20 20 19 19 18 18 18 18 18 19 19 19 19 19 19 19 20 20 19 18 18 18 18 17 17 17 17 17 17 17 17 17 16 16 16 16 16 16 16 16 16 16 16
25 24 24 24 24 24 24 24 23 23 23 22 22 23 23 22 20 19 19 21 22 22 23 23 23 24 24 23 24 24 23 23 23 22 22 22 22 21 20 20 19 19 19 19 19 19 18 19 18 18 19 19 20 20 20 19 19 19 19 19 19 18 18 18 18 17 17 17 17 17 17 17 17 16 16 16 16 16 16 16 16 16 16 16 16
24 24 24 24 24 24 24 23 23 23 23 23 23 23 24 23 21 19 19 19 20 20 21 21 22 22 23 23 23 22 22 22 22 21 21 20 20 19 19 18 18 18 19 19 19 19 18 18 18 18 19 19 19 19 19 19 18 18 18 18 18 17 18 17 17 16 17 17 17 17 17 17 16 16 16 16 16 16 16 16 16 16 16 16 16
23 23 23 23 24 24 24 23 23 23 23 23 23 23 23 23 22 21 20 20 19 18 17 18 19 20 21 21 20 20 20 20 20 20 20 19 18 19 19 19 18 18 18 19 19 18 18 18 18 18 18 18 18 18 17 17 17 18 18 18 17 17 17 17 16 16 16 17 17 17 16 16 16 16 16 16 16 16 16 16 16 16 16 15 15
23 23 22 22 23 23 23 23 23 22 22 22 23 23 22 22 21 21 21 19 18 15 14 14 16 17 18 18 18 18 18 19 18 19 19 19 19 20 19 18 17 17 17 17 17 17 17 17 17 17 17 17 17 17 17 17 17 17 17 17 17 16 16 16 16 16 16 16 17 16 16 16 16 16 16 17 17 16 17 16 16 16 15 15 15
22 22 22 22 22 22 22 22 21 21 21 21 21 21 21 21 21 20 19 18 16 14 13 13 14 15 16 17 17 17 18 18 18 18 18 19 19 19 18 17 16 16 16 16 16 16 15 15 15 15 16 16 16 16 15 16 16 17 17 16 15 16 17 17 17 17 16 16 16 16 16 16 16 16 16 17 17 17 17 16 16 16 16 15 15
22 22 21 21 21 21 21 21 20 20 21 21 21 21 20 20 20 19 18 17 16 15 15 15 15 15 15 16 17 17 17 17 17 17 17 17 18 17 16 16 16 15 15 15 15 15 15 15 15 15 15 15 15 14 14 15 15 15 15 14 14 15 16 17 17 16 16 16 16 16 16 16 16 16 16 17 17 17 17 17 17 17 17 17 16
20 20 21 21 21 20 20 20 20 20 20 20 20 20 19 19 18 18 17 17 16 16 16 16 16 15 15 15 16 17 17 16 16 16 16 16 16 15 15 15 15 15 15 15 15 15 15 15 15 15 14 14 14 14 14 14 14 14 14 14 14 14 15 15 15 15 15 15 16 16 16 16 16 16 16 17 17 17 17 17 17 17 17 17 17
19 19 19 19 20 20 20 20 20 20 20 19 19 18 18 17 17 16 16 16 16 16 16 15 15 15 15 15 15 16 16 15 15 15 15 15 15 15 15 15 15 15 15 15 15 15 15 14 14 14 14 14 14 14 13 13 13 13 13 13 13 14 14 14 14 14 15 15 15 15 16 16 16 16 17 17 16 16 16 17 17 17 17 17 17
18 18 18 18 19 19 19 20 20 19 18 18 17 17 17 16 16 15 15 15 15 14 14 14 14 15 15 15 16 17 16 15 14 14 14 14 14 14 14 14 14 14 14 14 14 14 13 13 13 13 13 13 13 13 13 13 13 13 13 13 13 13 14 14 14 14 15 15 15 15 15 15 15 16 16 16 16 16 17 17 17 17 17 17 17
18 17 17 17 18 18 18 18 17 17 17 16 16 15 15 15 15 14 14 14 14 14 13 13 14 14 15 16 16 16 15 14 14 13 13 13 13 13 13 13 13 13 13 12 12 12 12 12 12 12 13 13 13 13 13 12 12 13 13 13 13 14 14 14 14 14 15 15 15 15 15 15 15 15 16 16 16 17 17 17 17 17 17 17 17
16 16 16 16 16 16 16 15 15 15 15 14 14 14 14 14 14 14 14 13 13 13 13 12 13 13 14 15 16 15 14 13 13 12 12 12 12 12 11 12 12 13 12 12 11 11 11 11 11 12 12 12 12 13 13 13 13 13 13 13 13 13 14 14 14 15 15 15 15 15 15 15 15 16 16 16 16 16 17 17 17 17 17 17 17
15 15 14 14 14 13 13 13 13 13 13 13 13 12 12 12 12 12 12 12 12 12 11 11 11 12 12 13 13 13 12 12 11 11 11 11 11 10 10 10 11 11 12 11 11 10 10 10 10 11 11 11 11 11 12 12 12 13 13 13 13 13 14 14 14 15 15 15 15 16 15 15 15 16 16 16 16 16 17 17 17 17 17 17 17
14 14 13 13 12 12 12 11 12 12 11 11 11 11 11 11 11 10 10 10 10 10 10 10 10 10 10 10 10 10 10 10 10 10 10 10 10 10 10 10 10 10 11 11 10 10 10 9 9 10 10 10 10 11 11 11 11 12 12 12 13 13 13 14 14 14 14 15 15 15 15 15 15 15 16 16 16 16 16 17 17 17 17 17 17
14 13 12 12 11 11 10 10 10 10 10 10 10 10 9 9 9 9 9 9 9 9 9 9 9 9 8 8 8 9 9 9 9 9 9 9 9 9 10 10 10 10 10 10 10 10 10 10 10 10 10 10 10 10 11 11 11 11 12 12 12 12 13 13 13 14 14 14 14 15 15 15 15 15 15 15 15 15 16 16 16 16 16 17 17
12 11 11 11 10 10 9 9 9 9 9 8 8 8 8 8 8 8 8 8 7 7 7 7 7 7 7 7 7 7 7 7 8 8 8 8 8 9 9 9 10 10 9 10 10 10 10 10 10 10 10 10 10 10 10 10 10 11 11 11 11 12 12 12 13 13 14 14 14 14 14 15 15 15 15 15 15 15 15 16 16 16 16 16 16
10 10 9 9 9 8 8 8 8 8 8 7 7 7 7 7 7 7 7 7 6 6 6 6 6 6 6 6 6 6 6 6 6 6 6 7 8 8 9 9 9 9 9 9 9 9 9 9 9 10 10 10 10 10 10 10 10 10 10 11 11 11 11 12 12 13 13 13 14 14 14 14 14 14 14 14 14 15 15 16 16 16 16 16 16
9 9 8 8 8 8 8 7 7 7 7 6 6 6 6 6 5 5 5 5 5 5 5 5 5 5 5 5 5 5 5 5 5 5 6 6 7 7 8 8 8 8 8 8 8 8 8 9 9 9 9 9 9 9 9 9 9 9 9 10 10 10 10 11 12 12 13 13 13 13 13 13 14 14 14 14 14 14 15 15 15 15 15 16 16
8 8 8 8 8 8 8 7 7 7 7 7 7 6 6 6 6 6 6 6 5 5 5 5 4 4 4 4 5 5 5 5 5 5 5 5 5 6 6 6 6 7 7 7 7 7 7 7 7 7 7 7 8 8 8 8 8 8 8 8 9 10 10 11 11 12 12 12 13 13 13 13 13 13 13 13 13 14 14 14 14 15 15 15 16
8 7 7 7 7 7 7 7 6 6 7 7 6 6 6 6 6 7 7 8 7 7 7 7 6 6 5 4 4 4 4 4 4 5 5 5 5 5 5 5 5 6 6 6 6 6 6 6 6 6 6 6 7 7 7 7 7 7 7 8 8 9 10 10 11 11 11 11 12 12 12 12 12 12 12 12 13 13 13 13 13 14 15 15 15
Height
780 784 787 791 793 795 798 801 805 808 810 813 814 816 819 821 823 826 827 829 831 833 835 836 838 840 841 843 844 845 846 848 849 850 852 853 854 856 856 857 857 857 858 859 859 860 861 862 862 863 864 864 865 867 867 868 868 868 869 869 870 871 872 873 872 867 864 864 864 864 863 863 862 861 860 860 860 859 859 858 857 856 854 853 852
775 779 783 787 789 792 795 798 801 804 807 810 811 814 816 818 820 823 825 827 828 830 832 833 835 837 838 840 841 843 844 845 847 848 849 851 852 853 854 854 855 855 856 856 857 858 859 859 860 860 862 862 863 865 865 866 866 866 867 867 868 869 870 870 870 867 863 861 861 861 860 859 858 857 857 856 856 856 855 853 852 851 850 848 847
770 774 778 782 785 789 792 795 798 801 804 806 808 811 813 815 817 820 822 824 825 827 829 831 832 834 835 837 838 840 841 842 844 845 846 848 849 850 851 851 852 853 853 853 854 855 856 857 858 859 860 860 860 862 863 864 864 865 865 866 867 868 868 868 868 866 862 858 858 858 856 855 854 854 853 853 852 852 851 849 848 846 845 844 842
766 770 774 778 782 786 788 791 794 797 800 803 805 807 810 812 814 816 819 821 822 824 826 828 829 831 832 834 835 837 838 839 841 843 844 845 846 847 848 849 849 850 850 851 852 853 854 854 855 857 858 858 858 859 861 861 862 863 863 864 864 865 866 865 864 862 860 856 854 854 853 852 851 851 851 850 849 848 847 846 844 842 840 839 837
762 765 770 775 779 782 785 788 791 793 796 799 801 804 807 809 811 813 815 818 819 821 822 824 826 827 829 831 832 833 835 837 838 839 841 842 843 844 845 846 846 847 847 848 849 850 850 851 853 854 855 856 856 857 858 860 860 860 861 861 862 863 863 862 860 858 857 854 851 850 851 851 850 850 849 848 847 845 844 842 840 838 836 834 832
757 761 766 771 775 778 781 783 786 789 792 794 797 800 803 806 807 809 811 814 816 817 819 820 822 824 825 827 829 830 832 833 835 836 838 839 840 841 842 843 843 844 844 845 846 847 847 848 850 851 852 853 854 855 856 858 858 858 858 859 859 860 859 858 856 854 853 852 850 849 850 850 849 848 847 846 845 843 841 838 835 833 830 828 826
753 757 762 766 770 772 776 779 782 784 787 790 793 796 799 802 804 806 808 810 812 814 815 817 818 820 822 823 825 827 828 830 832 833 835 836 837 838 839 840 840 841 841 842 843 844 844 845 847 848 849 850 851 852 854 855 856 856 856 857 857 857 856 854 852 851 851 851 851 850 849 849 847 845 844 843 842 840 838 835 831 828 826 823 820
749 753 757 762 764 767 771 774 777 780 783 786 789 792 795 798 800 802 804 806 808 810 812 813 815 816 818 820 822 824 825 827 828 829 831 833 834 835 836 837 837 838 838 839 840 841 841 843 843 844 845 846 848 850 851 852 854 854 855 855 855 855 853 852 850 850 850 850 851 850 848 847 844 842 841 841 839 836 834 832 828 824 822 819 817
744 749 753 756 759 762 766 770 773 777 779 782 785 788 791 793 796 798 800 802 804 806 808 810 812 813 815 817 819 820 822 823 824 825 827 829 830 832 833 834 834 835 836 836 837 837 838 839 840 841 842 843 844 846 848 849 851 852 853 853 853 852 851 850 849 848 848 848 848 849 848 845 842 839 838 837 835 831 829 830 828 824 821 815 812
740 745 748 751 754 758 763 766 770 773 776 778 781 784 787 790 792 794 796 798 801 803 805 807 808 810 811 813 815 817 818 818 819 821 823 825 827 829 830 830 831 832 833 833 834 834 835 836 837 838 839 840 841 842 844 846 847 848 849 850 851 850 848 848 847 846 845 844 845 846 845 842 838 836 834 832 830 828 829 831 830 824 818 811 806
736 740 743 746 751 755 759 763 766 769 772 775 778 781 784 787 789 791 793 795 797 799 801 803 805 807 808 810 811 812 813 814 815 817 819 821 824 826 827 828 828 829 830 830 830 831 832 832 833 834 835 836 838 839 841 842 843 844 844 845 846 847 846 846 844 843 841 840 840 841 840 837 833 831 830 829 828 828 830 832 829 822 816 810 805
733 736 740 744 748 752 756 759 763 766 769 772 775 778 781 783 785 787 789 791 793 795 797 799 801 803 805 806 807 808 809 809 811 813 815 817 820 822 824 825 826 826 826 827 827 828 828 829 830 831 832 833 834 836 837 838 839 840 840 840 842 842 843 842 840 838 836 834 834 833 832 830 827 826 828 829 829 827 827 829 827 820 814 810 806
730 734 738 742 745 749 753 756 759 762 765 768 771 774 777 779 781 783 786 788 790 792 794 796 798 799 801 802 803 805 805 806 807 809 811 814 816 819 821 822 823 823 823 823 824 824 825 826 827 828 829 830 832 833 834 835 836 836 836 836 837 838 838 837 835 832 829 827 826 824 824 824 823 824 828 829 827 824 823 824 824 818 812 807 803
727 732 736 739 742 746 750 752 755 758 761 764 767 770 772 775 777 780 782 785 786 788 790 793 794 795 797 799 800 801 802 802 803 805 807 810 812 815 817 818 819 819 819 820 820 820 821 822 823 824 825 827 829 830 831 832 833 834 833 833 833 834 834 832 830 827 824 822 821 820 820 819 819 822 826 826 825 822 818 819 820 816 809 804 800
725 729 733 736 740 743 746 749 752 755 758 761 764 766 769 771 774 776 779 781 783 784 787 789 790 792 793 795 796 797 798 799 800 802 804 806 809 811 813 814 815 815 815 816 816 817 818 819 819 820 821 823 825 827 828 829 831 832 831 830 830 831 830 828 826 825 822 821 821 820 818 816 817 820 822 823 822 820 816 815 815 813 808 802 797
722 726 729 732 735 738 742 745 748 751 754 757 760 763 765 768 770 773 775 778 780 781 783 785 786 788 789 791 793 793 794 795 797 798 800 803 805 808 809 810 811 811 811 812 812 813 813 814 815 816 817 819 821 822 824 826 828 830 829 827 827 828 827 825 823 822 820 819 819 818 816 815 815 816 817 819 819 817 815 813 812 811 807 802 797
719 722 725 728 732 735 738 742 745 748 751 753 756 759 761 764 767 769 772 774 776 778 779 781 783 784 785 787 789 789 790 791 793 795 797 799 802 804 804 805 806 807 807 807 808 808 809 810 811 812 813 815 816 818 820 822 825 827 826 824 823 824 824 822 820 818 816 816 816 815 814 813 812 811 811 814 815 814 813 810 808 807 805 801 796
716 719 722 725 729 732 735 738 741 744 747 749 752 755 758 760 763 765 768 770 772 774 776 777 779 780 782 783 784 785 786 787 789 791 793 795 798 799 801 802 802 803 803 803 804 804 804 805 807 808 809 810 812 814 816 819 821 823 824 822 820 819 820 820 818 815 813 813 813 813 812 810 809 808 808 809 810 811 809 806 804 805 803 798 793
711 714 718 722 726 729 732 735 737 740 743 746 749 751 754 756 759 761 764 766 769 771 772 774 775 776 777 779 780 781 782 783 785 787 788 791 793 795 797 798 798 799 799 800 800 800 800 800 802 803 804 805 807 810 812 815 817 819 820 820 817 815 816 818 817 813 811 811 811 811 810 809 808 806 805 806 807 807 805 802 801 801 799 795 793
707 711 715 719 722 726 728 731 734 736 739 742 744 747 750 752 755 758 760 763 765 767 768 770 771 772 773 775 776 777 778 779 781 782 784 786 788 790 793 794 794 795 795 796 796 796 796 796 797 798 799 801 803 805 808 811 813 815 817 817 815 812 813 815 815 813 810 810 810 810 808 807 806 805 803 803 803 803 801 799 799 798 796 793 791
704 709 713 716 720 722 725 728 730 733 736 738 741 744 746 749 752 754 757 759 761 763 765 766 767 769 770 771 771 772 773 775 776 777 779 781 783 786 788 788 790 791 791 792 792 792 792 793 793 794 795 797 799 801 804 806 808 810 812 812 811 811 812 813 813 811 810 809 808 808 807 806 805 804 803 802 801 800 799 798 796 796 794 791 787
702 707 710 714 717 720 723 725 727 731 733 736 738 741 744 746 749 751 753 756 757 759 761 763 764 765 766 767 768 769 769 771 772 773 775 776 778 781 782 783 785 786 787 788 788 788 789 789 790 791 792 794 796 798 800 802 804 805 806 807 807 808 810 812 811 808 807 806 805 805 805 805 804 803 802 801 800 799 797 794 793 792 790 788 785
701 705 708 712 715 717 720 722 724 728 730 732 735 737 740 743 746 748 750 752 754 756 758 760 761 762 763 764 765 765 765 766 767 769 770 772 774 775 777 778 780 782 783 783 784 785 785 786 787 788 790 791 793 795 797 798 799 801 801 802 803 804 806 809 808 806 805 805 805 805 805 804 803 802 801 799 797 795 793 790 788 787 785 783 780
699 703 706 709 712 715 717 719 722 724 726 729 731 734 737 740 742 744 747 749 751 753 755 756 758 758 759 760 761 762 761 761 762 764 765 767 769 770 772 774 775 777 779 780 781 782 783 783 784 785 787 789 791 792 794 795 796 797 798 799 801 801 802 805 806 805 805 805 805 804 804 803 801 800 798 796 793 791 789 786 784 782 780 778 775
697 700 703 706 709 712 714 716 718 721 723 725 728 731 733 736 738 741 743 745 747 749 751 752 753 754 755 756 756 757 757 757 758 760 761 763 764 766 768 770 771 773 775 777 778 779 780 781 782 783 785 787 788 790 791 792 793 795 796 798 799 801 802 803 804 805 805 804 803 803 802 800 799 797 795 793 791 789 787 784 781 779 777 774 771
694 697 700 703 706 709 711 714 716 718 720 722 725 727 729 732 734 736 739 741 743 745 746 748 749 750 751 752 752 753 753 754 755 756 757 758 760 762 764 766 768 770 772 774 775 776 777 779 780 782 784 785 787 788 789 791 792 793 795 796 797 800 801 801 802 803 803 803 802 802 801 799 797 796 793 791 790 788 786 783 780 777 775 772 768
692 695 698 700 703 706 708 710 713 715 717 720 722 724 726 728 730 732 734 736 739 741 742 743 745 746 747 748 748 749 749 750 751 753 754 755 756 758 760 762 764 766 768 770 772 773 775 777 779 781 783 784 786 787 788 790 791 793 794 794 795 797 798 798 800 801 801 801 801 800 799 798 796 794 792 790 788 786 785 783 780 777 775 772 768
690 693 695 698 700 702 705 707 710 712 714 716 718 720 722 724 726 727 729 731 734 736 738 739 740 741 743 744 744 744 745 746 747 748 750 751 752 754 756 757 760 762 763 766 769 772 774 777 779 781 782 784 785 786 787 789 790 791 793 793 794 795 796 796 798 799 799 799 799 798 797 796 794 793 791 789 786 785 783 782 779 777 774 771 767
689 691 694 696 698 700 702 705 707 709 711 713 715 716 718 720 722 724 726 727 729 732 733 735 736 737 739 740 740 741 742 742 743 744 745 747 749 751 752 754 756 758 760 763 767 771 773 776 778 780 781 783 784 785 787 788 788 789 791 792 792 793 794 795 796 796 796 796 796 796 795 793 792 791 789 787 785 783 781 780 777 775 772 769 765
689 691 693 695 696 698 700 702 704 706 707 709 711 714 716 717 719 721 723 725 726 729 730 731 733 734 736 736 737 737 738 739 740 741 742 744 746 748 750 752 753 756 759 762 767 770 772 774 776 778 779 781 782 783 785 786 786 788 789 790 790 791 792 793 793 793 793 793 793 793 792 791 790 788 787 785 783 780 778 777 775 773 770 766 763
689 691 692 694 695 697 699 701 702 703 705 707 709 712 714 716 717 719 721 722 724 726 727 729 730 732 733 734 734 734 735 736 737 739 740 742 744 746 748 750 752 755 757 761 765 768 769 771 774 775 777 779 780 781 782 783 785 786 787 788 789 789 790 790 790 790 790 790 790 790 789 788 787 786 785 783 781 778 776 775 773 771 767 764 761
689 691 692 693 695 696 698 699 701 702 704 706 708 710 712 714 716 718 719 721 722 723 725 726 728 728 730 731 731 732 733 734 735 737 738 740 742 743 745 748 751 754 757 759 762 764 766 768 770 773 775 777 778 779 780 782 783 784 785 786 786 787 787 787 787 787 788 788 787 787 786 786 785 784 783 781 779 777 775 773 771 769 766 763 760
690 691 693 694 695 697 698 699 700 702 703 705 707 709 710 712 714 717 718 719 720 722 722 724 725 726 727 728 729 730 731 732 734 735 737 738 740 742 744 747 750 753 756 758 759 761 763 765 768 770 773 774 776 778 779 780 781 782 783 784 784 785 785 785 784 785 785 785 785 785 784 784 783 782 781 779 777 776 774 772 770 768 766 763 759
691 692 693 694 696 696 697 698 700 701 703 705 706 708 709 711 712 715 717 718 719 721 722 722 723 724 725 726 727 728 730 731 733 734 736 738 740 742 744 748 752 754 757 757 757 759 761 764 766 769 771 773 775 777 779 779 780 781 781 782 782 783 783 783 783 783 783 783 783 783 783 783 782 780 779 777 776 774 773 771 769 767 765 763 759
692 692 693 694 695 696 697 698 699 700 702 703 705 707 708 710 712 714 715 717 718 720 722 722 723 724 725 725 727 729 730 731 733 734 736 740 742 743 745 750 754 757 758 759 759 761 763 764 766 768 771 772 774 777 778 779 779 780 781 781 781 782 782 782 782 782 781 782 782 782 782 781 781 779 778 776 775 774 772 770 768 766 765 762 759
692 693 694 694 696 697 697 698 699 700 702 703 705 706 707 709 711 713 715 717 718 721 723 724 725 726 727 728 730 732 733 734 736 737 739 742 745 746 747 750 754 758 760 761 762 763 765 766 767 769 771 772 773 776 777 778 779 779 780 780 780 781 781 781 780 780 780 781 781 781 781 780 779 778 776 775 774 773 771 769 768 766 765 762 759
694 694 694 695 696 697 697 698 699 700 702 703 705 706 708 710 712 714 715 717 719 722 725 726 727 729 731 733 735 736 738 739 740 741 744 745 746 747 750 753 756 759 762 763 764 765 767 768 769 770 772 773 774 776 777 778 778 779 779 779 779 779 779 779 778 778 779 780 780 780 780 779 778 777 776 774 773 772 770 769 767 766 764 762 759
696 696 696 696 696 697 698 699 699 700 702 704 706 707 709 711 713 715 717 719 721 723 726 728 730 730 733 736 738 739 741 742 743 744 747 749 748 750 753 756 759 762 765 766 766 767 769 770 771 772 774 775 776 777 777 778 779 779 779 779 779 778 777 777 777 777 778 780 780 780 779 778 777 776 775 774 773 771 770 769 767 765 763 761 758
698 699 699 698 697 698 699 700 701 702 703 705 707 709 711 713 715 717 719 721 723 725 728 730 732 733 735 738 740 740 742 745 746 747 750 752 752 753 757 760 761 764 767 768 769 770 771 772 772 773 774 775 776 777 778 778 779 778 778 778 778 777 777 777 777 778 779 779 779 779 778 777 776 775 775 774 773 772 770 769 768 766 763 760 758
703 703 703 701 700 700 701 702 703 704 706 707 710 711 713 714 717 719 722 723 726 728 730 732 735 737 739 740 741 741 743 746 749 751 754 755 756 757 760 762 764 766 768 769 770 771 772 773 773 774 774 775 777 778 778 778 778 777 777 777 777 777 777 778 778 778 779 779 778 778 777 777 776 775 775 774 773 772 771 769 768 766 764 761 758
706 707 706 705 703 703 703 704 705 706 707 710 712 714 716 717 718 721 723 726 728 732 734 735 736 740 742 742 742 742 742 745 749 751 754 756 758 760 762 763 765 766 768 769 770 771 773 774 774 775 776 776 777 778 778 777 777 777 777 777 777 777 778 778 778 778 778 778 778 777 777 776 776 775 775 774 773 772 771 769 768 766 763 761 759
708 709 709 709 707 706 706 707 707 708 709 711 714 716 719 720 721 722 724 726 729 733 736 737 738 741 743 744 744 743 744 745 748 750 753 756 759 761 762 764 765 766 768 770 771 773 774 775 775 775 776 776 776 776 776 776 776 776 777 777 777 777 778 778 778 778 778 777 777 777 776 776 776 775 775 774 773 772 771 769 767 765 763 760 759
709 710 711 712 711 710 710 709 710 710 711 713 716 718 720 723 725 726 727 728 730 733 737 739 739 740 742 743 743 744 746 748 751 753 755 757 759 762 764 765 766 768 769 771 772 773 774 775 775 775 776 776 776 775 775 775 775 776 776 776 777 777 777 778 778 777 777 777 777 776 776 776 776 775 775 774 773 772 771 769 766 764 762 760 759
710 711 713 714 714 714 713 712 712 713 714 716 718 720 723 725 728 730 731 732 733 735 738 740 741 741 743 744 744 744 746 749 751 754 757 759 761 764 766 767 768 769 771 772 773 774 775 776 776 776 776 776 776 776 776 776 776 776 776 776 776 776 776 776 776 776 776 776 776 776 776 776 776 775 774 774 773 772 770 768 766 763 761 759 758
712 713 714 716 717 717 716 715 715 715 717 718 721 723 726 728 730 733 736 737 737 738 740 741 742 743 745 747 747 747 748 749 752 755 758 761 762 765 767 768 769 770 771 773 774 775 776 777 777 777 777 777 776 776 776 776 776 776 776 776 776 776 776 776 776 776 776 776 776 776 776 775 775 775 774 773 772 770 769 766 764 762 760 759 758
714 715 717 719 720 720 720 719 718 717 719 721 724 727 729 731 734 736 739 741 741 742 743 744 744 745 747 749 750 750 750 752 754 757 760 762 764 765 767 769 770 771 772 773 774 775 775 776 776 776 776 776 776 776 776 776 777 777 777 777 777 777 777 777 776 776 776 776 776 775 775 774 774 773 772 771 770 769 767 765 763 761 760 758 757
716 717 719 722 723 723 723 722 721 720 721 724 727 730 732 734 736 739 742 744 745 747 748 748 748 747 748 750 753 754 755 756 758 760 763 764 765 767 768 769 770 771 772 773 774 774 775 775 775 775 776 776 776 776 777 777 777 777 777 777 777 777 777 777 777 777 776 776 775 775 774 773 772 772 771 770 768 767 765 763 761 760 759 757 756
718 719 721 724 727 727 726 725 724 723 724 726 729 732 735 737 739 741 744 746 747 750 753 754 753 752 751 753 755 757 758 760 762 764 765 766 767 768 769 770 771 772 773 774 774 775 775 775 775 776 776 776 777 777 777 777 778 778 778 778 778 778 778 778 778 777 777 776 775 774 773 773 772 770 769 768 767 765 763 762 760 759 758 756 755
721 721 723 726 729 730 729 728 727 727 727 728 731 735 738 739 741 743 745 747 750 753 755 757 758 758 758 757 758 759 760 762 764 765 766 768 769 771 771 772 773 774 774 775 775 776 776 776 776 776 777 777 777 778 778 778 778 779 779 779 779 779 779 778 778 777 776 776 775 774 773 772 771 769 768 766 764 763 762 760 759 758 757 755 754
726 726 727 729 731 732 732 731 730 730 731 732 734 737 740 741 743 744 746 748 751 753 756 758 762 764 764 764 763 763 763 764 765 765 767 768 771 773 774 775 775 776 776 777 777 777 777 778 778 778 778 778 778 779 779 779 779 779 779 779 779 779 779 778 777 776 775 774 774 773 772 771 770 768 767 765 763 761 760 759 758 757 756 754 753
733 732 733 734 735 735 734 734 734 734 735 736 739 741 743 744 745 747 748 749 751 753 755 757 760 764 767 770 771 770 768 767 767 767 767 769 771 773 775 776 777 777 778 778 779 779 779 779 779 779 780 780 780 780 780 780 780 780 780 780 779 779 778 777 776 775 774 773 773 772 771 770 768 767 765 764 762 761 760 758 757 756 754 753 752
Wind_Speed
33 33 33 30 30 33 34 34 34 31 28 29 31 31 31 32 32 30 31 32 31 30 30 29 28 27 26 25 24 25 25 25 25 23 21 17 13 12 12 12 13 14 14 15 14 13 13 15 18 19 19 19 18 17 17 17 17 17 17 17 16 15 14 12 12 16 18 17 20 21 21 23 25 27 27 26 25 24 22 22 22 23 24 26 26
33 33 32 31 33 34 33 33 33 31 28 29 30 30 30 32 33 31 31 31 32 31 30 30 29 28 27 26 26 25 25 25 25 24 23 21 17 14 13 13 13 14 15 15 15 14 13 13 15 17 19 20 20 18 16 16 16 15 16 16 14 14 15 15 13 14 18 18 18 22 25 26 27 27 27 26 25 24 24 25 26 26 27 28 29
33 34 34 33 33 33 31 30 31 31 29 29 29 29 29 30 32 33 31 29 30 32 31 30 30 29 28 27 27 26 25 25 25 24 24 24 22 20 18 17 16 16 17 17 17 16 15 14 15 14 14 18 20 19 17 17 16 16 16 16 15 14 15 17 16 15 18 20 18 18 19 21 25 27 27 27 27 26 26 28 28 29 30 31 32
33 34 35 34 32 31 30 30 29 30 30 29 28 28 27 26 30 33 31 27 27 31 32 30 30 29 28 28 28 28 27 26 25 25 25 25 24 23 22 22 20 20 21 21 19 18 17 17 16 14 12 15 18 18 16 17 17 18 18 18 18 17 16 19 21 19 19 20 21 21 20 22 26 27 26 27 28 28 28 29 30 31 32 33 34
32 34 34 33 30 30 30 30 29 30 30 29 28 28 26 24 27 31 30 27 26 29 31 31 30 30 29 29 29 29 28 28 27 26 25 25 25 24 23 24 24 24 25 24 23 21 21 20 18 16 14 15 16 15 14 14 16 18 19 19 19 18 18 20 23 23 21 21 24 24 23 23 26 27 28 27 26 26 27 30 32 32 34 34 34
32 32 33 32 30 31 31 30 30 31 31 30 28 28 27 25 25 28 29 28 26 26 28 30 31 31 31 30 30 30 29 29 29 28 26 25 25 25 24 25 26 26 26 25 24 24 24 23 20 18 18 17 16 15 14 13 14 16 19 20 18 17 17 19 22 23 21 21 23 23 21 20 20 24 28 28 25 24 25 29 31 32 34 35 35
32 32 33 32 30 31 32 32 32 31 31 31 28 27 27 26 26 27 28 28 27 26 26 27 30 32 32 31 31 31 30 30 30 29 28 27 27 27 26 26 26 26 27 25 23 23 23 23 21 20 21 21 19 18 16 15 14 16 17 18 17 15 16 17 19 20 19 19 19 19 19 18 17 21 26 27 26 26 27 28 29 32 34 35 36
32 32 33 32 30 33 35 34 33 31 31 32 31 28 28 28 28 28 29 28 28 27 25 25 28 30 31 31 30 30 30 31 30 30 30 29 28 28 27 27 25 25 25 25 24 23 23 21 20 20 21 24 23 21 19 17 15 14 14 14 14 15 16 16 17 18 18 17 18 18 18 17 18 22 26 25 24 27 30 28 28 33 35 35 36
33 33 32 31 33 37 38 35 33 32 32 34 35 31 29 29 29 29 30 31 29 27 26 24 25 26 27 28 29 28 29 30 31 31 30 30 29 27 26 26 25 24 24 24 23 24 24 22 20 20 21 24 25 24 23 21 18 17 16 14 13 15 17 18 18 19 19 18 17 17 18 18 19 21 25 26 26 31 32 25 23 28 32 34 37
34 33 32 33 37 40 40 38 35 33 33 36 37 34 31 29 30 30 31 32 30 27 26 25 23 24 25 26 27 27 28 31 32 32 31 30 29 26 24 26 26 25 24 23 23 24 23 22 22 23 24 26 27 26 25 24 23 23 22 19 17 17 18 19 19 20 21 20 18 16 17 19 20 21 26 30 32 32 26 16 16 26 30 31 34
34 33 33 35 40 40 39 37 35 33 34 35 35 36 34 31 31 32 32 32 30 28 27 26 25 24 23 24 25 25 29 32 34 34 33 32 29 26 23 24 25 26 25 24 24 23 22 22 22 23 25 27 27 26 25 25 24 24 25 24 22 21 21 21 22 23 23 22 21 19 19 20 23 27 30 30 29 27 20 14 18 28 29 23 23
35 34 31 33 38 38 35 34 33 33 34 34 35 37 36 34 33 33 32 31 30 28 27 27 27 26 24 23 24 25 28 32 34 34 34 33 32 28 24 21 21 23 23 23 24 23 22 21 20 20 21 23 24 23 22 23 23 24 25 25 25 24 24 24 25 25 25 24 24 25 24 25 28 32 30 24 23 23 19 14 19 29 32 24 22
33 31 29 31 35 36 33 33 33 33 34 36 36 36 36 34 33 32 31 31 30 29 28 27 27 27 25 25 25 25 26 29 33 35 34 33 32 31 28 23 21 22 22 23 23 23 22 21 20 20 20 21 22 22 22 22 22 24 24 24 25 25 25 26 26 27 29 30 30 31 31 30 30 26 20 19 22 24 21 15 16 24 30 29 29
29 29 28 30 33 34 33 33 33 33 35 36 35 34 34 33 32 31 30 29 28 28 28 27 27 28 27 27 27 26 26 29 32 33 34 33 32 31 30 27 24 23 23 23 23 24 23 22 22 22 21 19 19 18 20 20 19 19 20 21 22 21 22 24 25 27 30 33 35 37 36 35 34 26 21 23 27 30 30 26 22 24 30 35 38
28 28 28 29 32 33 33 33 32 32 34 35 34 32 32 31 31 30 28 27 27 28 29 28 28 28 28 28 27 26 28 30 32 33 33 33 31 31 31 30 28 26 25 25 25 25 25 24 24 24 22 20 19 18 19 18 16 16 18 19 20 18 18 22 24 25 28 31 34 36 37 37 37 34 31 30 29 30 33 33 29 27 31 37 40
27 28 29 30 32 33 33 32 31 31 31 32 31 30 29 29 30 30 28 26 25 26 27 28 27 27 28 28 26 26 28 30 33 34 34 32 31 30 31 32 31 29 27 27 27 27 27 26 25 25 24 22 22 24 24 22 18 16 18 20 20 18 18 21 24 26 29 31 33 35 36 37 37 36 35 32 29 29 31 31 29 27 28 31 31
28 29 30 30 31 32 31 31 30 30 29 29 29 28 28 29 29 29 27 25 23 23 25 26 26 26 27 27 26 27 28 30 33 34 33 32 31 31 32 32 32 30 29 29 29 28 29 29 28 26 24 23 24 26 26 24 20 18 18 20 21 20 18 20 24 28 30 33 33 33 35 36 36 36 35 33 31 32 31 29 28 27 26 25 24
29 29 29 30 29 30 30 30 30 29 29 28 28 28 28 28 28 28 27 26 25 24 24 24 24 25 26 26 27 27 28 29 32 34 33 32 31 31 32 32 30 29 29 30 31 31 31 32 30 29 27 26 27 27 25 23 20 17 17 20 22 22 19 18 22 28 32 34 33 32 34 35 34 33 31 29 28 29 29 30 29 25 24 25 26
29 30 30 30 29 30 30 31 31 30 29 29 29 28 28 28 28 27 26 26 25 24 23 23 23 24 25 26 28 29 28 27 30 32 33 33 32 32 32 30 27 27 27 27 29 30 32 33 33 32 31 30 29 28 26 24 20 17 16 18 21 24 22 19 22 29 32 32 31 31 32 31 29 29 27 25 25 25 26 29 27 22 24 28 29
30 31 31 29 29 30 30 30 31 30 29 30 30 30 29 28 26 25 24 24 24 23 23 23 22 23 23 24 26 28 28 26 28 30 32 32 32 32 32 29 26 25 25 25 25 26 27 28 30 31 31 29 28 27 26 25 23 19 16 18 22 25 24 21 22 26 27 27 27 27 26 26 25 25 25 24 24 22 21 22 20 19 22 27 28
30 29 28 27 28 28 28 29 31 30 29 30 29 28 26 25 24 24 24 23 23 23 22 22 22 22 22 23 24 25 26 27 28 30 32 32 31 31 32 31 28 26 24 24 25 24 22 22 26 28 28 26 25 24 22 21 21 20 18 19 21 21 19 17 17 19 21 20 18 18 19 20 21 21 21 20 18 16 15 16 16 16 20 24 27
30 27 26 26 26 26 26 27 29 29 27 26 25 25 24 24 23 23 23 22 22 22 22 22 21 20 21 22 22 23 25 27 28 29 31 32 31 31 32 33 31 28 24 23 23 23 21 22 25 26 26 24 23 22 18 15 15 16 18 20 18 13 11 12 13 14 15 14 13 14 16 17 17 16 15 14 13 12 15 16 17 17 19 23 26
31 27 26 26 24 25 26 26 28 27 25 25 26 26 24 23 22 22 22 22 21 21 23 23 23 22 21 22 23 23 25 28 30 31 31 32 32 32 32 33 33 31 27 23 22 22 22 22 23 24 24 22 20 17 14 12 12 12 13 14 13 12 13 14 12 9 10 11 12 13 13 12 12 12 11 12 13 15 20 24 24 21 21 23 26
29 26 26 25 24 25 25 27 28 27 25 26 27 26 24 23 23 23 24 23 22 22 23 23 23 23 23 23 23 24 25 27 30 32 32 32 32 32 32 31 32 32 31 27 23 21 20 20 21 22 21 18 15 13 11 10 10 10 9 10 12 16 22 25 19 11 10 11 11 10 10 9 10 11 13 15 18 22 25 27 28 24 21 22 24
29 27 25 25 25 25 24 25 27 27 26 26 27 25 23 23 23 24 25 25 24 23 24 23 23 23 23 23 23 23 22 23 25 28 31 31 31 31 32 31 30 31 32 30 25 21 21 21 21 19 17 14 11 10 9 9 8 9 10 12 15 17 20 22 17 12 10 9 8 7 8 10 12 14 18 20 22 24 25 25 27 26 23 21 23
29 27 24 24 25 25 23 23 24 25 25 25 25 25 24 23 22 23 24 25 25 24 24 23 23 22 22 23 23 21 18 19 20 23 26 29 29 29 30 29 29 29 31 31 28 24 23 22 19 16 13 11 10 9 9 9 9 11 14 17 18 16 15 15 14 11 9 6 5 6 8 10 12 15 17 19 21 22 21 21 22 24 23 22 24
28 27 25 24 25 24 23 22 22 22 23 23 23 23 23 22 21 22 22 23 24 24 24 23 23 23 22 22 21 19 17 17 18 19 21 24 28 29 29 29 29 29 31 33 31 26 21 17 14 12 11 10 9 9 10 11 13 16 17 17 17 16 15 14 12 9 6 5 4 5 6 9 11 13 15 18 19 19 17 16 17 19 21 22 23
27 26 26 26 26 25 23 22 21 20 20 21 21 21 22 21 21 21 22 23 24 24 23 23 23 22 21 20 18 17 16 16 17 18 20 23 24 25 27 29 30 30 31 32 29 22 17 15 12 11 11 11 12 12 13 15 15 16 16 16 15 15 13 12 10 8 6 4 3 2 4 6 8 9 12 14 16 15 13 14 16 18 19 21 22
23 23 23 22 23 24 22 21 20 18 17 20 21 21 22 22 21 21 21 22 24 23 21 21 21 20 19 19 17 16 15 16 19 22 24 24 22 21 23 26 28 28 29 27 21 15 14 16 14 13 14 15 16 17 16 16 15 14 14 14 14 12 11 9 8 6 5 3 2 2 3 5 6 8 9 11 13 13 12 13 15 17 19 20 21
15 17 17 15 17 19 18 17 18 17 19 22 23 21 20 20 21 21 20 21 25 26 24 22 20 19 19 18 18 19 17 17 20 22 22 23 23 22 23 24 24 23 23 21 17 13 14 17 17 16 18 18 18 17 15 14 13 12 12 13 11 9 8 7 5 4 4 3 2 1 2 4 6 8 8 10 12 13 12 12 15 17 19 20 21
10 10 11 11 12 13 13 13 15 17 20 24 24 21 18 16 17 20 20 21 23 26 27 26 25 23 21 18 20 22 22 21 22 21 19 18 20 21 22 21 19 18 17 17 17 14 16 19 19 18 19 19 17 17 15 12 11 10 10 10 9 8 7 6 5 4 3 2 1 2 4 5 7 8 8 9 11 12 12 13 15 17 19 20 20
7 7 7 8 9 9 9 11 12 14 17 19 20 19 16 12 10 12 15 18 20 22 25 26 26 26 25 22 22 23 23 22 21 19 16 15 16 17 17 15 12 11 13 17 18 17 19 21 21 19 18 17 16 15 13 11 11 10 9 8 7 6 6 6 7 5 3 2 3 4 5 5 6 8 8 8 10 11 13 15 16 17 19 20 20
7 7 7 7 8 8 8 9 11 12 14 15 16 16 15 13 12 11 10 11 14 17 20 22 24 25 24 23 22 21 19 18 17 14 13 13 13 14 13 12 13 16 18 20 22 21 21 22 21 20 18 17 16 14 12 12 12 10 8 7 7 6 6 8 8 5 3 5 5 4 4 5 7 7 7 8 10 11 13 14 16 17 19 20 21
7 7 7 7 7 7 8 8 9 11 12 13 15 17 15 13 14 15 14 11 10 10 11 14 17 19 19 19 19 18 16 14 12 11 11 12 14 17 19 20 21 20 21 23 24 24 22 21 20 18 17 15 14 12 10 11 11 9 7 7 7 6 7 7 6 4 4 5 4 4 5 5 6 7 7 8 10 10 12 13 15 17 18 19 20
7 6 6 6 6 6 6 7 8 9 9 11 13 14 13 12 13 14 13 12 12 11 8 7 7 9 12 13 13 13 13 14 15 16 18 20 23 26 27 27 24 19 17 19 21 20 19 19 18 16 15 14 13 11 10 9 9 7 6 6 6 5 5 5 5 5 5 4 3 4 5 5 5 6 7 8 9 9 11 12 14 15 16 17 18
6 6 5 5 5 5 6 6 6 7 8 8 9 11 11 11 12 12 12 14 16 15 15 16 17 16 15 17 19 20 22 24 25 26 27 27 26 26 27 26 22 17 14 14 15 15 15 14 14 12 12 13 12 11 10 9 7 6 6 6 5 4 4 4 5 6 5 3 3 5 4 4 6 7 7 8 8 9 10 11 12 12 13 14 15
6 5 5 5 6 6 7 7 7 7 8 8 9 11 13 14 14 15 16 18 19 19 19 22 25 26 26 27 28 29 29 29 28 27 26 24 23 23 24 23 19 16 13 11 10 10 10 9 8 8 8 8 8 7 7 7 6 6 5 5 4 4 4 5 6 7 6 3 3 4 4 5 6 7 7 8 9 10 10 11 12 11 12 13 14
6 5 5 6 7 7 8 9 9 9 10 10 11 13 15 15 16 18 18 18 19 19 19 19 21 23 25 27 29 29 27 26 25 24 22 21 21 21 19 16 14 13 11 9 8 8 8 7 7 7 6 5 5 4 4 4 3 3 3 2 2 4 5 5 6 7 5 3 3 4 5 5 6 7 7 8 9 10 10 11 12 12 12 14 14
7 5 4 6 8 8 8 9 9 10 11 12 14 16 17 16 16 17 17 17 18 18 18 18 18 19 21 23 26 28 27 24 23 22 18 16 18 18 15 14 14 13 11 10 9 9 8 7 6 5 5 4 4 3 3 2 2 2 2 2 3 4 5 4 4 4 4 3 3 4 5 6 7 7 7 8 9 10 10 10 11 11 12 13 15
7 6 5 7 8 8 9 9 9 9 11 12 14 16 17 18 18 16 15 16 17 16 17 18 17 16 16 18 22 26 25 22 19 16 14 14 16 16 15 15 15 14 12 11 10 9 8 6 6 5 5 4 3 3 2 2 2 3 3 3 3 3 3 3 3 3 4 4 4 4 5 6 8 8 8 8 9 9 9 9 10 10 11 12 13
8 8 8 9 10 10 10 10 10 11 13 13 13 13 14 17 18 16 17 19 19 17 17 20 21 20 19 21 24 27 26 23 21 19 18 18 18 17 16 16 15 14 14 13 11 9 8 7 6 6 5 5 4 3 3 3 3 3 3 3 3 3 3 2 3 4 5 5 5 5 5 7 9 9 8 9 9 9 8 9 10 10 10 11 11
9 9 9 10 10 11 11 12 13 16 18 18 16 13 13 13 14 16 20 25 25 21 20 23 26 26 25 25 27 27 26 25 25 24 23 22 20 18 17 16 15 15 14 12 11 10 9 9 9 9 8 8 7 6 5 5 5 5 5 5 5 4 4 3 4 6 6 6 6 7 7 8 9 9 9 9 10 9 9 9 9 9 9 10 10
11 10 10 10 11 11 12 13 13 16 19 20 19 17 16 16 15 15 18 23 25 25 23 24 27 30 29 28 29 29 26 25 24 23 22 21 20 18 17 16 15 14 13 12 11 11 11 12 12 12 12 12 11 10 9 9 8 8 7 7 7 6 6 6 7 8 8 8 8 9 9 9 9 9 9 9 9 9 10 9 8 8 9 9 9
12 11 11 11 11 12 14 16 17 18 20 21 21 21 20 19 18 16 16 18 21 23 22 21 24 27 27 26 28 30 29 27 26 25 23 22 20 18 18 17 17 16 14 14 14 14 14 14 15 15 15 15 14 14 13 12 11 10 10 10 9 9 9 9 10 10 10 10 10 10 9 9 8 8 9 9 9 10 10 9 9 9 9 9 8
13 12 12 12 12 13 14 16 18 20 21 22 22 21 19 19 18 17 14 14 17 19 19 18 19 21 20 20 23 26 28 27 26 24 23 23 22 21 20 19 18 18 18 17 17 17 17 17 17 17 17 17 16 16 15 14 14 13 12 12 12 12 12 11 11 11 11 11 11 11 10 9 9 8 9 9 9 10 10 9 9 9 9 9 9
12 13 12 13 13 13 13 14 17 19 20 21 21 21 20 21 20 18 15 14 14 15 16 16 18 20 21 20 20 23 26 28 27 26 24 23 23 23 22 21 21 21 21 20 18 18 18 18 18 18 18 18 17 17 16 15 15 14 13 13 12 12 12 11 11 10 10 11 11 11 11 11 10 10 10 10 10 10 10 9 9 9 9 9 9
13 14 14 13 13 14 14 15 18 20 21 20 20 19 20 20 20 19 18 17 16 15 14 14 17 20 22 22 20 20 22 23 23 24 24 25 25 24 24 23 22 22 22 21 20 19 19 18 18 17 17 16 16 15 15 15 14 13 13 12 12 11 11 11 11 10 10 11 11 11 11 11 11 11 12 12 11 10 10 10 10 9 9 9 9
14 15 14 13 13 13 13 15 18 19 20 21 20 19 18 19 20 20 20 20 19 17 14 13 14 16 19 19 19 20 20 19 18 18 21 24 25 25 25 24 23 23 22 21 21 20 19 19 18 17 16 15 15 14 14 14 13 12 12 11 11 11 11 10 10 10 10 10 10 10 11 11 11 11 11 11 10 10 10 10 10 10 10 10 9
18 18 18 16 16 15 15 16 18 19 20 21 22 21 20 21 21 21 22 22 22 20 18 17 16 16 17 19 20 21 21 20 18 19 20 22 24 25 25 25 25 24 23 22 22 21 20 20 19 18 17 16 15 15 15 14 13 13 12 11 10 9 8 8 8 8 8 9 10 10 10 10 10 10 9 9 9 10 10 10 11 11 10 10 10
19 21 21 22 22 22 23 24 25 26 27 28 29 28 28 28 28 28 27 27 26 24 23 21 19 17 16 16 18 21 22 21 21 22 22 22 21 20 19 20 22 22 22 22 22 21 20 20 19 19 18 17 16 16 16 15 14 14 13 11 9 8 6 6 6 6 7 8 9 9 9 9 10 10 10 10 10 10 10 10 11 11 11 11 10
17 18 19 19 18 18 20 22 23 24 25 26 27 28 28 29 30 30 31 31 31 30 30 29 26 23 19 16 14 15 17 18 20 22 22 20 18 16 16 18 21 22 22 22 22 21 20 20 19 19 19 18 18 18 17 16 15 14 13 11 10 9 8 7 7 7 7 8 8 8 8 9 9 10 10 10 11 11 11 11 11 10 10 11 11
Wind_Direction
195 198 199 198 200 202 204 207 208 208 207 211 215 217 218 220 222 223 226 230 232 234 236 239 242 244 245 244 245 245 247 248 249 249 248 243 237 237 239 237 240 243 245 246 245 246 254 258 262 266 268 268 269 269 270 273 275 272 270 267 260 257 254 244 254 274 278 278 283 286 288 291 295 297 298 299 300 301 299 294 291 287 283 281 281
194 196 197 198 201 203 204 205 207 207 206 210 214 215 217 221 223 223 225 229 232 233 236 239 241 244 244 244 246 246 248 249 248 248 248 246 243 239 238 239 241 243 245 246 245 245 249 252 258 264 266 267 268 265 264 267 267 266 266 266 261 259 262 258 255 271 281 283 285 288 289 291 293 294 296 296 296 296 295 293 291 288 285 284 282
193 194 196 198 201 202 201 202 204 205 205 209 212 213 215 219 222 225 225 227 231 234 236 238 240 243 243 244 246 247 248 249 247 248 249 249 247 244 245 245 242 244 247 248 250 250 249 249 253 258 260 265 268 266 263 263 263 263 265 265 264 262 265 268 264 262 274 282 282 282 284 286 288 291 294 294 294 292 291 290 290 287 286 285 282
191 193 196 199 200 199 199 200 200 202 205 208 211 212 212 214 219 224 224 222 227 234 236 236 238 241 241 243 246 247 248 248 248 248 250 251 250 249 250 251 249 251 254 255 256 255 252 252 255 256 253 259 267 267 263 263 266 269 270 270 271 268 266 269 268 263 266 274 277 276 278 281 286 290 292 292 294 294 292 292 290 287 286 286 283
190 192 195 197 198 198 199 199 199 202 205 208 210 210 209 209 214 221 221 219 223 230 234 234 235 238 240 241 244 246 247 247 247 249 250 251 252 251 252 254 255 257 259 261 261 260 259 258 257 256 253 254 262 263 259 261 266 271 274 273 273 271 268 269 270 266 260 264 273 277 279 282 287 291 293 293 293 293 293 294 293 290 289 288 284
189 190 193 195 196 197 198 198 200 202 204 206 208 207 207 208 211 217 219 218 220 224 229 232 233 236 239 240 242 245 247 247 248 250 249 250 253 254 253 255 257 259 260 261 262 263 264 263 260 258 257 255 256 260 261 259 259 266 273 275 273 271 268 267 268 265 258 260 271 278 282 284 285 289 293 294 291 288 289 291 290 289 288 289 286
186 187 191 193 194 195 196 198 200 202 203 205 205 205 207 208 210 215 218 218 219 221 223 227 232 236 238 239 240 243 245 246 247 249 249 248 251 253 253 254 255 258 259 260 260 261 263 263 261 260 261 262 261 262 264 261 258 262 269 273 271 267 265 263 261 260 259 261 270 277 282 285 283 285 291 293 290 288 286 284 284 285 287 287 287
184 186 189 191 193 195 197 199 200 201 202 205 206 205 205 208 210 214 217 218 220 221 220 222 228 233 235 236 238 240 242 244 245 247 248 247 248 250 252 252 251 253 257 259 259 259 260 260 258 257 262 267 269 268 266 263 261 263 265 266 265 263 263 265 265 266 267 269 274 278 280 281 280 283 290 291 286 285 285 280 279 285 289 288 287
184 186 188 190 195 199 200 200 201 201 202 207 209 206 205 208 210 213 217 220 220 221 221 220 222 227 229 232 234 235 237 241 242 243 244 245 246 246 247 249 250 250 253 256 258 259 260 258 255 255 259 266 273 275 274 271 268 267 265 265 267 268 269 269 271 276 278 277 278 279 280 281 276 277 283 283 281 284 286 282 281 288 293 291 288
184 187 189 193 199 202 202 202 202 202 204 208 210 209 208 209 211 214 218 221 221 220 220 219 220 222 224 226 229 231 234 239 242 243 243 243 243 242 243 247 250 250 251 253 255 258 259 258 258 260 265 270 275 277 278 278 276 274 271 267 265 268 273 276 279 281 282 282 282 280 278 278 272 271 276 280 282 285 288 292 297 296 294 291 290
185 188 191 196 200 202 202 202 203 203 206 209 210 212 212 212 214 217 219 221 221 220 219 219 220 222 223 224 225 227 233 240 243 245 245 244 242 240 240 245 248 250 250 251 254 256 257 257 260 263 268 272 275 277 279 280 279 279 279 276 270 266 268 273 277 281 281 282 284 282 272 267 267 271 275 279 283 286 291 300 299 293 290 288 291
188 190 192 194 197 199 199 200 202 203 206 208 210 213 214 214 217 218 218 220 220 219 219 220 222 224 223 224 225 226 232 241 245 246 247 246 244 240 239 240 243 246 247 247 251 253 254 255 256 258 261 266 270 274 277 280 282 282 283 282 278 273 269 268 269 272 273 274 277 276 267 261 266 271 274 279 288 293 290 284 284 287 286 283 283
188 190 191 191 194 196 196 197 200 202 205 208 210 212 213 213 215 216 216 219 219 219 221 221 223 224 223 224 226 227 232 240 245 247 247 247 246 243 240 239 240 243 244 246 248 250 251 253 254 254 257 261 265 267 269 274 280 283 284 283 280 277 274 271 269 268 268 265 264 265 266 266 268 271 275 280 288 291 286 276 277 285 285 280 279
184 186 189 190 193 194 195 196 199 201 204 207 207 208 210 211 213 214 216 217 217 219 220 220 222 224 224 226 228 230 233 238 244 247 247 246 246 244 242 240 241 243 245 246 248 249 250 251 254 256 256 257 259 261 263 266 269 273 279 280 278 276 275 274 272 268 267 265 262 263 269 273 271 272 277 279 280 282 282 281 281 282 283 283 283
183 185 188 190 192 194 195 197 198 200 203 205 205 207 209 210 211 213 214 215 217 219 220 221 223 225 226 227 229 232 236 239 242 245 247 246 245 244 244 242 242 244 246 247 248 250 251 252 254 257 256 255 255 254 257 259 259 264 271 273 273 271 268 270 273 272 272 274 273 272 276 280 280 280 281 279 279 281 282 283 284 283 282 285 287
183 186 189 191 193 194 195 196 198 199 200 202 204 205 206 209 211 212 213 215 218 219 221 222 223 225 226 227 229 233 237 239 242 244 246 246 243 241 242 243 243 244 246 247 249 251 253 253 253 256 257 257 258 261 264 262 257 258 267 271 272 271 266 268 275 279 280 284 285 284 286 290 293 293 290 284 280 281 281 282 282 279 277 280 283
186 189 192 193 194 194 194 195 197 198 198 200 202 204 206 209 211 211 212 214 216 218 220 222 223 225 227 226 227 232 236 240 242 243 245 244 240 239 240 241 242 243 245 248 250 252 254 254 254 256 257 257 260 265 268 265 255 251 258 266 271 274 274 273 275 280 283 286 288 289 293 297 299 299 297 293 288 285 280 275 275 275 274 274 274
189 191 193 193 193 193 194 195 197 197 198 200 202 204 206 209 211 211 211 214 217 219 221 223 224 225 227 226 227 231 236 240 243 244 244 242 239 238 239 239 240 242 245 249 251 253 256 258 257 256 257 260 264 267 267 263 255 247 250 262 270 272 272 271 273 277 282 285 288 291 293 295 297 298 299 298 295 289 280 274 276 277 272 271 273
190 191 192 193 193 193 194 196 197 198 199 201 203 205 207 210 211 210 212 214 217 220 221 222 224 225 226 228 230 233 236 239 243 244 244 242 239 238 237 237 237 239 243 247 251 253 257 260 261 260 261 263 267 268 267 262 254 246 246 256 264 267 267 266 267 273 278 281 285 289 291 294 296 297 297 298 297 294 288 285 284 276 271 274 277
190 191 192 193 193 194 195 196 198 200 201 203 205 206 208 209 209 209 210 213 217 220 221 221 224 226 228 229 231 234 235 237 241 244 244 242 239 237 235 233 233 236 239 242 247 250 253 256 261 264 266 268 269 270 269 264 259 255 249 248 255 262 266 267 264 265 270 275 280 285 289 294 297 296 297 299 300 299 294 288 281 271 270 275 277
188 188 189 191 193 194 196 198 200 202 204 205 206 207 207 208 207 208 210 213 215 218 220 221 225 228 230 230 231 233 234 236 238 242 245 243 240 238 234 232 233 235 237 239 243 247 249 251 257 265 269 271 272 273 272 268 263 257 249 248 249 249 253 260 264 264 266 271 279 283 285 288 290 292 295 297 298 297 291 282 275 270 270 272 275
187 186 187 190 193 194 196 199 200 203 205 205 204 205 207 208 208 208 209 211 213 216 218 221 224 228 230 232 233 232 234 238 239 241 244 245 243 239 236 236 237 236 235 237 241 244 246 249 257 266 270 270 272 274 272 268 259 249 245 243 233 216 218 243 259 267 269 274 282 284 282 283 286 289 291 292 292 293 292 290 286 278 271 269 271
190 189 190 192 193 194 196 198 200 202 203 202 203 205 206 205 205 206 207 208 211 217 221 223 227 231 235 237 237 235 235 239 242 243 244 246 245 243 241 241 242 238 235 237 240 242 246 250 256 263 267 268 270 268 263 256 242 231 227 221 203 175 176 197 213 234 253 261 269 272 274 281 285 286 288 293 301 308 312 313 311 300 284 275 273
189 188 189 191 192 195 197 199 201 203 203 202 204 206 204 203 204 207 209 210 214 221 226 226 228 232 236 238 240 238 235 238 243 245 246 246 246 245 244 244 244 241 237 238 242 245 247 249 253 259 264 264 260 251 240 229 215 204 191 182 177 170 174 185 199 220 238 248 258 264 274 288 295 302 311 317 322 325 326 325 322 312 295 283 280
188 188 189 192 194 196 199 200 201 203 203 203 204 205 204 203 206 209 213 214 218 224 227 226 226 229 233 236 239 237 233 234 239 243 246 246 246 246 246 246 246 244 240 239 241 244 246 248 251 256 257 250 238 226 215 204 191 178 162 154 157 164 171 180 194 211 224 239 260 276 292 308 317 324 327 328 331 332 330 325 322 318 310 302 297
189 189 189 192 195 196 199 201 202 204 204 204 205 206 206 204 204 208 212 214 217 222 225 225 225 227 232 235 237 234 229 227 230 237 243 245 245 245 246 246 246 245 241 238 237 241 245 247 248 247 241 230 219 209 197 185 167 155 150 149 152 160 166 170 178 191 207 226 256 277 296 317 329 333 335 335 335 334 330 323 320 319 318 316 311
190 192 194 195 196 197 199 201 203 204 205 205 206 207 207 205 203 204 206 210 217 222 224 226 227 228 231 235 234 230 226 224 224 227 234 240 243 243 243 243 242 241 239 236 235 237 240 240 237 230 220 208 200 192 177 163 153 148 147 146 148 152 154 153 158 169 179 190 225 269 303 328 335 336 337 336 332 329 325 320 317 316 317 317 312
191 195 197 197 199 200 201 202 202 201 201 203 206 207 208 207 208 208 206 207 213 219 223 225 225 224 226 228 229 228 227 224 223 224 227 233 236 236 237 238 236 235 235 234 230 227 225 221 213 208 204 192 179 172 164 157 151 146 142 138 135 134 131 129 134 142 147 162 198 263 317 325 321 319 323 324 321 319 321 321 317 315 318 319 315
189 194 197 198 201 204 204 204 204 201 198 199 202 206 208 208 211 214 213 211 211 214 217 219 219 219 222 225 225 227 227 227 232 238 239 239 235 229 231 237 236 235 235 229 215 199 198 200 196 193 192 182 169 162 158 152 146 141 137 133 129 127 128 130 139 141 129 134 173 217 286 299 307 312 314 316 315 315 320 327 327 324 324 324 320
171 182 187 190 196 200 200 201 202 202 200 199 200 202 205 208 210 213 215 216 217 218 219 222 223 224 225 226 226 230 232 234 241 247 248 246 242 236 235 237 235 233 229 215 194 177 181 187 189 189 183 173 163 160 156 149 144 140 137 134 130 130 134 135 137 126 104 107 153 236 316 324 329 328 322 319 319 319 324 333 338 337 334 330 326
144 158 169 175 182 184 186 192 196 198 200 199 196 194 195 200 207 211 214 218 220 221 223 227 230 231 230 231 233 236 238 238 243 250 251 247 244 238 234 233 231 229 221 198 179 171 175 178 178 177 173 168 166 164 157 150 148 143 139 135 127 123 125 115 101 99 95 100 104 21 2 347 335 330 328 324 323 326 333 341 345 346 342 337 331
133 136 145 158 167 168 171 180 186 188 190 190 189 186 180 174 181 198 209 216 219 221 223 227 231 233 233 234 237 240 240 238 240 246 246 241 235 228 223 221 214 204 195 183 172 165 167 169 166 164 165 166 165 162 154 148 146 142 140 137 125 120 117 93 82 91 93 66 51 25 2 346 333 328 329 328 329 337 347 351 351 349 345 341 336
137 135 134 143 155 161 164 170 174 178 181 185 188 187 181 171 161 158 166 189 204 212 217 221 227 231 231 231 233 235 236 234 232 231 226 220 212 200 188 173 159 157 164 169 164 158 158 160 158 158 162 162 159 157 153 148 143 137 135 135 126 116 101 82 78 83 68 52 47 24 357 348 339 333 335 342 344 346 350 353 355 353 349 344 339
132 138 144 150 157 161 164 168 172 177 182 186 191 192 190 180 165 156 149 151 164 179 194 206 215 221 222 223 223 222 219 214 206 196 185 175 166 156 143 132 134 145 158 162 157 152 152 152 150 151 155 156 157 157 154 148 145 140 136 133 125 110 92 80 79 77 59 51 43 19 2 354 346 341 345 351 350 347 348 353 356 355 351 346 341
113 120 136 148 151 154 160 165 169 176 184 188 192 193 188 172 160 160 157 149 139 128 124 137 168 193 198 193 189 186 178 165 154 146 139 135 134 133 127 122 125 134 145 149 146 144 146 148 147 149 154 156 157 157 153 151 150 145 139 132 126 117 102 86 77 69 60 53 33 17 6 353 347 347 347 347 347 348 352 355 355 353 350 345 341
91 99 118 132 139 144 153 158 161 170 179 181 183 181 172 161 157 156 152 143 132 116 102 101 107 115 124 129 130 132 131 129 126 125 125 127 130 130 125 122 123 126 129 133 136 138 143 144 144 147 152 156 157 157 156 156 155 151 148 139 128 121 110 89 76 65 55 39 18 10 2 353 356 357 353 350 349 350 353 352 350 349 348 343 340
68 79 99 118 131 138 143 145 150 160 165 164 166 167 165 163 161 153 144 136 127 117 110 111 111 110 112 116 120 122 122 122 121 120 122 126 129 126 121 119 120 121 121 123 125 127 127 128 128 131 140 150 155 158 159 159 155 150 146 141 130 121 106 89 76 65 51 24 359 358 359 2 4 358 352 352 352 351 351 349 346 344 344 343 344
63 70 95 120 127 128 132 136 141 149 154 157 161 162 161 159 154 146 139 132 125 121 122 123 121 118 118 121 125 126 124 121 118 116 117 119 117 113 111 111 111 111 110 108 108 110 111 113 117 121 130 141 149 154 157 155 151 144 136 133 126 106 90 74 63 54 40 6 343 355 2 5 7 2 356 355 353 350 347 346 346 347 348 351 356
56 62 90 117 118 111 114 123 127 131 137 145 152 153 149 143 135 130 128 126 124 123 124 125 124 123 125 127 128 126 120 112 107 105 105 104 103 102 102 104 104 106 107 105 103 105 107 107 108 111 116 126 137 146 147 145 148 143 126 118 105 85 72 60 46 36 20 353 349 360 4 5 6 1 358 357 354 348 343 343 344 345 348 354 359
45 50 70 94 102 99 101 111 118 117 116 123 133 138 137 131 124 117 112 111 114 119 124 123 120 121 125 128 127 121 112 101 95 94 91 90 94 97 100 103 104 106 106 101 97 96 93 90 88 89 91 99 113 126 131 132 133 124 101 89 89 81 72 64 40 16 8 7 4 360 358 359 358 355 354 355 351 343 338 338 338 338 345 353 357
57 56 65 79 88 90 92 99 108 111 109 108 110 114 117 119 119 116 110 107 106 108 112 112 112 116 122 127 128 124 116 107 103 99 93 91 90 90 91 93 93 93 91 87 85 87 87 86 93 100 103 104 102 101 98 89 86 86 78 71 76 76 67 60 38 16 10 8 3 355 349 349 351 349 345 342 339 335 332 334 335 336 343 353 357
76 68 65 68 73 79 84 89 97 105 108 107 103 100 103 108 112 115 116 115 113 110 107 107 112 119 124 127 127 122 112 105 104 102 97 95 91 86 86 90 92 94 92 83 77 81 89 98 106 108 109 109 105 100 96 86 75 75 70 60 60 61 51 37 28 21 18 11 1 355 352 350 349 347 339 333 331 328 324 326 332 338 345 353 356
89 81 74 67 66 72 80 84 88 95 100 102 100 99 101 104 106 110 115 117 116 115 112 111 113 117 120 124 125 119 108 102 101 100 97 97 95 91 91 95 99 104 105 99 92 91 95 100 103 101 99 99 97 94 92 89 86 86 83 74 68 63 52 40 30 24 20 14 6 2 356 348 342 337 332 331 329 324 320 319 323 331 341 347 349
94 90 85 79 75 76 80 85 88 89 93 96 97 96 97 99 99 99 104 110 113 114 113 112 111 111 112 116 118 116 112 109 107 105 103 104 103 100 101 103 105 108 109 108 106 104 100 97 96 96 93 90 87 83 81 79 78 78 76 73 69 64 57 50 42 34 27 20 13 7 356 344 335 330 328 328 325 320 319 320 319 322 330 332 332
92 93 93 90 88 86 85 88 92 93 94 95 92 89 89 90 89 87 88 95 103 107 108 109 109 108 106 106 107 107 108 109 108 105 104 104 104 104 105 106 105 105 105 106 107 107 103 98 94 91 88 84 80 78 75 71 70 68 64 62 61 58 54 50 44 39 34 26 18 10 359 346 335 328 326 326 321 316 318 321 321 322 325 322 319
94 95 94 94 95 94 93 95 97 97 96 94 91 88 86 86 85 83 80 79 85 92 97 101 104 103 102 101 101 102 105 107 107 106 105 104 104 105 106 105 104 103 102 102 103 103 101 100 96 91 86 81 78 76 73 68 65 62 58 54 51 47 44 38 29 25 24 17 9 4 358 353 345 337 333 331 324 317 317 322 324 326 326 323 318
100 98 96 97 98 98 97 99 100 98 96 94 91 88 86 84 83 81 79 76 74 75 79 89 97 99 100 100 100 100 102 104 104 106 107 107 107 108 108 106 105 104 102 102 102 100 97 96 94 90 86 80 76 73 70 65 62 57 52 47 40 33 29 22 13 10 9 4 357 353 351 349 344 339 340 339 332 323 321 324 327 327 325 322 318
105 102 101 101 101 101 100 99 100 99 98 97 94 91 89 88 85 82 80 78 75 71 68 70 79 88 95 99 101 102 103 103 103 104 105 105 106 108 109 107 105 104 102 102 100 98 96 94 92 89 85 81 76 71 67 63 59 54 49 44 36 27 19 9 1 356 351 347 344 343 341 339 337 335 337 338 334 330 329 329 329 329 325 320 317
107 107 107 105 104 105 104 101 100 99 99 99 97 94 92 91 89 86 84 82 78 75 70 68 71 79 90 97 100 101 103 103 103 103 102 101 102 104 106 105 104 103 101 99 97 95 94 93 90 87 84 80 77 73 68 62 58 53 48 42 36 27 18 8 1 356 348 341 338 336 334 334 335 335 334 333 333 333 333 331 329 328 325 322 319
101 102 104 104 105 106 105 103 102 102 102 103 104 104 103 102 100 98 96 93 88 84 79 75 71 71 75 84 93 100 103 104 104 103 103 102 102 101 99 100 100 99 97 96 94 93 91 89 86 83 80 76 73 69 63 57 53 48 41 34 27 18 10 2 358 357 354 349 346 343 340 339 340 341 340 339 338 336 334 331 330 327 324 322 321
88 93 96 98 100 102 102 100 100 100 101 102 104 106 107 107 107 107 106 105 103 103 102 99 96 91 84 76 77 88 95 100 104 106 106 106 106 104 101 100 99 97 95 94 92 89 87 84 82 78 75 71 68 65 60 55 50 45 38 28 19 12 5 358 351 348 346 344 344 347 347 347 349 352 353 350 346 341 337 334 331 327 321 318 317